Regional Weather Roundup
Issued by NWS Binghamton, NY

Home | Current Version | Previous Version | Text Only | Print | Product List | Glossary On
Versions: 1 2 3 4 5 6 7 8 9 10 11 12 13 14 15 16 17 18 19 20 21 22 23 24 25 26 27 28 29 30 31 32 33 34 35 36 37 38 39 40 41 42 43 44 45 46 47 48 49 50
382
ASUS41 KBGM 081310
RWRBGM

REGIONAL WEATHER ROUNDUP
NATIONAL WEATHER SERVICE BINGHAMTON NY
800 AM EST MON FEB 08 2016

Note: "fair" indicates few or no clouds below 12,000 feet with no
significant weather and/or obstructions to visibility.

* = Station(s) that does not report precipitation, such as rain,
snow, etc, also no thunder or fog.

!NYZ009-015>018-022>025-036-037-044>046-055>057-062-081400
...CENTRAL NEW YORK...

CITY           SKY/WX    TMP DP  RH WIND       PRES   REMARKS
BINGHAMTON     CLOUDY    27  20  75 NE6       29.75S WCI  20
CORTLAND       FAIR      28  25  86 N5        29.78S WCI  23
DANSVILLE      CLOUDY    34  25  69 S6        29.74S WCI  29
ELMIRA         CLOUDY    21  19  92 CALM      29.79R
ITHACA         CLOUDY    29  21  72 E7        29.78S WCI  22
HORNELL        CLOUDY    30  25  80 S6        29.77S WCI  24
MONTICELLO     CLOUDY    30  23  74 E13       29.78R WCI  20
NORWICH          N/A     25  21  86 CALM      29.81
PENN YAN       CLOUDY    29  25  85 CALM      29.76S
ROME           PTCLDY    25  20  81 CALM      29.86S
SIDNEY         CLEAR     23  23 100 CALM      29.81R
SYRACUSE       CLOUDY    29  23  78 E10       29.81F WCI  20
$$

!PAZ038>040-043-044-047-048-072-081400
...NORTHEAST PENNSYLVANIA...

CITY           SKY/WX    TMP DP  RH WIND       PRES   REMARKS
HAZLETON       CLOUDY    28  21  74 CALM      29.78S
SCRANTON       CLOUDY    32  23  69 CALM      29.79R
$$
&&
KEY
WCI = WIND CHILL INDEX
VSB = VISIBILITY
HX  = HEAT INDEX
$$




USA.gov is the U.S. government's official web portal to all federal, state and local government web resources and services.